Regional Weather Roundup
Issued by NWS Burlington, VT

Home | Current Version | Previous Version | Text Only | Print | Product List | Glossary On
Versions: 1 2 3 4 5 6 7 8 9 10 11 12 13 14 15 16 17 18 19 20 21 22 23 24 25 26 27 28 29 30 31 32 33 34 35 36 37 38 39 40 41 42 43 44 45 46 47 48 49 50
000
ASUS41 KBTV 201430
RWRBTV
VERMONT REGIONAL WEATHER ROUNDUP
NATIONAL WEATHER SERVICE BURLINGTON VT
1000 AM EDT SUN AUG 20 2017

NOTE: "FAIR" INDICATES FEW OR NO CLOUDS BELOW 12,000 FEET WITH NO
SIGNIFICANT WEATHER AND/OR OBSTRUCTIONS TO VISIBILITY.

* THESE REPORTS ARE NOT UNDER NWS QUALITY CONTROL AND/OR DO NOT
  REPORT WEATHER SUCH AS PRECIPITATION AND FOG.

VTZ001>019-201500-
_____VERMONT_____


CITY           SKY/WX    TMP DP  RH WIND       PRES   REMARKS
BURLINGTON     MOSUNNY   72  57  59 NW13G20   30.00R
MONTPELIER     PTSUNNY   65  55  70 NW9G21    30.03R
MORRISVILLE    LGT RAIN  66  55  67 NW10G16   30.01R
ST. JOHNSBURY*   N/A     70  58  65 MISG      29.96R
LYNDONVILLE*   CLOUDY    66  58  73 SW9G16    30.00R
MIDDLEBURY*    PTSUNNY   70  57  61 NW10      30.02R
RUTLAND*       PTSUNNY   70  59  68 NW9       30.01R
SPRINGFIELD    PTSUNNY   71  57  61 W6        29.99R
HIGHGATE*      FAIR      70  60  70 NW8       29.99R
NEWPORT*       CLOUDY    64  60  85 W3        29.99S
BENNINGTON     MOSUNNY   71  61  70 W9        30.02S
SUTTON*          N/A     66 N/A N/A MISG        N/A
ISLAND POND*     N/A     63 N/A N/A W8          N/A
GALLUP MILLS*    N/A     66 N/A N/A MISG        N/A
UNION VILLAGE*   N/A     73 N/A N/A MISG        N/A
MT. MANSFIELD*   N/A     50 N/A N/A W39         N/A

_____LAKE CHAMPLAIN_____


CITY           SKY/WX    TMP DP  RH WIND       PRES   REMARKS
BURTON ISLAND*   N/A     70  59  68 NW6         N/A
COLCHESTER RF*   N/A     70  57  64 NW18        N/A
DIAMOND ISL*     N/A     70  55  60 NW8G14      N/A

$$

NYZ007-026>031-035-052-083-087-201500-
_____NORTHERN NEW YORK_____


CITY           SKY/WX    TMP DP  RH WIND       PRES   REMARKS
PLATTSBURGH    SUNNY     72  56  57 NW10G20   29.99R
SARANAC LAKE   PTSUNNY   65  58  78 W8        30.04S
MASSENA        SUNNY     70  61  73 W10       30.02S
OGDENSBURG*    FAIR      74  62  65 SW5       30.02S
POTSDAM*       SUNNY     72  66  83 W5        30.02S
STARK FALLS*     N/A     66 N/A N/A NW5         N/A
WATERTOWN      MOSUNNY   69  64  84 W10       30.05S
FT DRUM        MOSUNNY   69  61  75 SW12      30.04S
ALBANY         PTSUNNY   73  59  61 NW14G22   30.03R
GLENS FALLS    MOSUNNY   73  57  57 N8        30.01R

$$
NHZ002-005-011-201500-
_____NEW HAMPSHIRE_____


CITY           SKY/WX    TMP DP  RH WIND       PRES   REMARKS
LEBANON        PTSUNNY   72  60  66 NW6       29.97R
KEENE            N/A    N/A N/A N/A MISG        N/A
MT WASHINGTON  FOG       45  45 100 W56G66      N/A  VSB 0   WCI  32
PLYMOUTH       FAIR      72  55  54 NW10G23   29.95R
WHITEFIELD     PTSUNNY   68  56  65 NW16G22   29.97R

$$

_____REGIONAL QUEBEC LOCATIONS_____


CITY           SKY/WX    TMP DP  RH WIND       PRES   REMARKS
MONTREAL       MOSUNNY   70  59  68 W12       29.97S
QUEBEC CITY    PTSUNNY   68  57  68 W16       29.86R
SHERBROOKE     PTSUNNY   66  61  82 W12       29.94R

_____REGIONAL ONTARIO LOCATIONS_____


CITY           SKY/WX    TMP DP  RH WIND       PRES   REMARKS
OTTAWA         MOSUNNY   68  61  77 W9        30.00S

______KEY______
VSB  - VISIBILITY IN MILES
WCI  - WIND CHILL INDEX
HX   - HEAT INDEX
$$
NNNN




USA.gov is the U.S. government's official web portal to all federal, state and local government web resources and services.